EW8307 Weather Reports


time (UTC)temp
C
wind
direction
speed
KPH
gust
KPH
rain 1hr
cm
rain 24hr
cm
rain mn
cm
humidity
%
barometer
mb
20260507030005 14 323 0.0 12.9 0.00 0.03 0.03 93 1002.3
20260507024504 14 148 0.0 4.8 0.00 0.03 0.03 95 1002.3
20260507023004 14 129 0.0 11.3 0.00 0.03 0.03 95 1002.1
20260507021503 13 211 0.0 8.0 0.00 0.03 0.03 95 1002.1
20260507020004 13 208 0.0 8.0 0.00 0.03 0.03 95 1002.1
20260507014504 13 207 1.6 6.4 0.00 0.03 0.03 95 1002.2
20260507013003 13 188 0.0 6.4 0.00 0.03 0.03 95 1002.1
20260507011503 13 225 3.2 11.3 0.00 0.03 0.03 94 1002.1
20260507010002 14 230 1.6 12.9 0.00 0.03 0.03 94 1002.2
20260507004504 14 217 0.0 9.7 0.00 0.03 0.03 94 1002.2
20260507003001 13 207 0.0 8.0 0.00 0.03 0.03 94 1002.2
20260507001501 13 258 1.6 11.3 0.00 0.03 0.03 94 1002.1
20260507000004 13 222 0.0 9.7 0.00 0.03 0.03 94 1002.1
20260506234501 14 187 0.0 8.0 0.00 0.03 0.03 94 1001.6
20260506233000 14 229 1.6 9.7 0.00 0.03 0.03 94 1001.8
20260506231601 14 160 0.0 3.2 0.00 0.03 0.03 94 1001.7
20260506230001 14 160 0.0 8.0 0.00 0.03 0.03 94 1001.6
20260506224601 14 157 0.0 8.0 0.00 0.03 0.03 94 1001.6
20260506223105 14 119 0.0 6.4 0.00 0.03 0.03 94 1001.7
20260506221604 14 185 0.0 6.4 0.00 0.03 0.03 93 1001.9
20260506214601 14 195 1.6 9.7 0.00 0.03 0.03 93 1002.2
20260506213100 15 150 0.0 8.0 0.00 0.03 0.03 92 1002.3
20260506211557 15 234 0.0 6.4 0.00 0.03 0.03 92 1002.4
20260506204556 15 160 0.0 12.9 0.00 0.03 0.03 91 1002.5
20260506203053 15 177 0.0 8.0 0.00 0.03 0.03 91 1002.7
20260506201552 15 177 1.6 11.3 0.00 0.03 0.03 91 1002.6
20260506194552 15 220 0.0 8.0 0.00 0.03 0.03 90 1002.8
20260506193055 15 191 1.6 11.3 0.00 0.03 0.03 89 1002.8
20260506191558 16 149 0.0 8.0 0.03 0.03 0.03 89 1002.9
20260506184548 16 233 1.6 11.3 0.03 0.03 0.03 84 1003.0
20260506183046 17 213 3.2 12.9 0.03 0.03 0.03 80 1003.3
20260506181600 18 247 3.2 12.9 0.00 0.00 0.00 76 1003.5
20260506174545 20 234 3.2 20.9 0.00 0.00 0.00 66 1003.6
20260506173112 21 176 6.4 17.7 0.00 0.00 0.00 62 1003.4
20260506171547 21 207 8.0 22.5 0.00 0.00 0.00 59 1003.4
20260506164543 22 129 6.4 16.1 0.00 0.00 0.00 58 1003.6
20260506163051 21 179 0.0 20.9 0.00 0.00 0.00 61 1003.8
20260506161540 21 242 1.6 14.5 0.00 0.00 0.00 60 1003.9
20260506154538 20 219 6.4 20.9 0.00 0.00 0.00 62 1004.2
20260506153032 20 214 4.8 22.5 0.00 0.00 0.00 64 1004.5
20260506151531 20 109 3.2 12.9 0.00 0.00 0.00 64 1004.6
20260506144529 20 194 0.0 9.7 0.00 0.00 0.00 68 1004.8
20260506143027 19 223 1.6 11.3 0.00 0.00 0.00 70 1005.2
20260506141521 18 210 3.2 16.1 0.00 0.00 0.00 71 1005.0
20260506134517 18 218 3.2 12.9 0.00 0.00 0.00 74 1005.1
20260506133015 17 152 1.6 11.3 0.00 0.00 0.00 76 1005.2
20260506131511 17 205 1.6 8.0 0.00 0.00 0.00 77 1005.7
20260506124509 16 228 0.0 16.1 0.00 0.00 0.00 79 1005.7
20260506123008 16 225 4.8 14.5 0.00 0.00 0.00 80 1005.6
20260506121508 16 173 1.6 14.5 0.00 0.00 0.00 81 1005.8
20260506114508 15 126 1.6 11.3 0.00 0.00 0.00 83 1005.7
20260506113007 15 218 1.6 11.3 0.00 0.00 0.00 84 1006.0
20260506111506 15 183 0.0 8.0 0.00 0.00 0.00 84 1006.2
20260506104515 14 236 1.6 8.0 0.00 0.00 0.00 85 1005.9
20260506103007 13 209 3.2 8.0 0.00 0.00 0.00 85 1005.9
20260506101507 13 214 1.6 9.7 0.00 0.00 0.00 85 1005.9
20260506094504 13 216 1.6 9.7 0.00 0.00 0.00 85 1005.8
20260506093003 14 187 0.0 9.7 0.00 0.00 0.00 84 1005.8
20260506091503 14 178 1.6 6.4 0.00 0.00 0.00 84 1005.9
20260506084600 14 144 3.2 11.3 0.00 0.00 0.00 83 1005.9
20260506083059 14 202 0.0 9.7 0.00 0.00 0.00 82 1005.9
20260506081601 14 207 0.0 11.3 0.00 0.00 0.00 82 1006.0
20260506073055 15 191 0.0 11.3 0.00 0.00 0.00 80 1006.0
20260506071608 15 235 1.6 8.0 0.00 0.00 0.00 79 1005.9
20260506061545 16 225 1.6 11.3 0.00 0.00 0.00 76 1005.5
20260506044541 16 186 1.6 11.3 0.00 0.00 0.00 70 1006.1
20260506043048 16 327 3.2 12.9 0.00 0.00 0.00 70 1006.1
20260506041553 16 227 3.2 11.3 0.00 0.00 0.00 70 1005.9
20260506034540 16 151 1.6 12.9 0.00 0.00 0.00 70 1006.0
20260506033039 16 188 1.6 11.3 0.00 0.00 0.00 70 1005.9
20260506031540 16 202 0.0 8.0 0.00 0.00 0.00 70 1005.9